Voltar ao catálogo

SL-16 DEB

AtivoLEO
NORAD 39886·DEBRIS·🇷🇺 Russia

Lançado Mar 26, 1993 de Baikonur Cosmodrome

Loading…

Próximas Passagens (próximas 24 horas)

TLE

AtualizadoSource: Space-Track

Época: Sep 14, 2026, 20:11 UTC

1 39886U 93016BL  26257.84109947  .00003572  00000-0  47569-3 0  9998
2 39886  71.0057 100.0327 0043476  59.7448 300.8001 14.79762625655557

Acompanhe SL-16 DEB em tempo real com AllMySat

Download on the App Store